Regional Weather Roundup
Issued by NWS

Home | Current Version | Previous Version | Graphics & Text | Print | Product List | Glossary On
Versions: 1 2 3 4 5 6 7 8 9 10 11 12 13 14 15 16 17 18 19 20 21 22 23 24 25 26 27 28 29 30 31 32 33 34 35 36 37 38 39 40 41 42 43 44 45 46 47 48 49 50
000
ASUS43 KLOT 310700
RWRIL

ILLINOIS REGIONAL WEATHER ROUNDUP
NATIONAL WEATHER SERVICE CHICAGO/ROMEOVILLE IL
200 AM CDT FRI JUL 31 2015

NOTE: "FAIR" INDICATES FEW OR NO CLOUDS BELOW 12,000 FEET WITH NO
SIGNIFICANT WEATHER AND/OR OBSTRUCTIONS TO VISIBILITY.

* THESE STATIONS ARE NOT UNDER NWS QUALITY CONTROL. THEY ALSO MAY NOT
  REPORT WEATHER SUCH AS PRECIPITATION OR FOG.

ILZ001-002-007-009-015-016-024-310800-
NORTHWEST ILLINOIS

CITY           SKY/WX    TMP DP  RH WIND       PRES   REMARKS
MOLINE         CLEAR     68  64  87 SW3       30.08S
STERLING*      CLEAR     66  63  88 W3        30.04S
$$

ILZ003-004-008-010-011-017-018-310800-
NORTH CENTRAL ILLINOIS

CITY           SKY/WX    TMP DP  RH WIND       PRES   REMARKS
ROCKFORD       CLEAR     67  58  72 SW3       30.06S
$$

ILZ005-006-012>014-019>023-310800-
NORTHEAST ILLINOIS

CITY           SKY/WX    TMP DP  RH WIND       PRES   REMARKS
CHICAGO-OHARE  FAIR      72  58  61 W10       30.03R
CHICAGO-MIDWAY CLEAR     75  57  53 W8        30.03R
AURORA         CLEAR     62  59  90 W3        30.06R
WAUKEGAN       CLEAR     68  57  68 CALM      30.01S
DUPAGE AIRPORT CLEAR     70  58  65 W6        30.04R
WHEELING       CLEAR     72  57  59 W6        30.04R
NORTHERLY ISL    N/A     76  56  49 W7          N/A
$$

LMZ740>746-310800-
SOUTHERN LAKE MICHIGAN

STATION/POSITION SKY/WX   TEMP    WIND        PRES    VSBY  WAVE
                          AIR SEA DIR/SP/G                  HT/PER
                          (F)     (DEG/KT/KT) (MB)    (MI)  (FT/S)
HARRISON CRIB              77     290/ 14/ 16   N/A
BURNHAM HARBOR             76     270/  5/  9   N/A
CALUMET HARBOR             76     280/  4/  7   N/A
BURNS HARBOR               76     240/  9/ 12 1016.9R
MICHIGAN CITY              75     220/ 14/ 15   N/A
MICHIGAN CITY 6N           76 74  280/ 10/ 14   N/A           2/ 3
ST. JOSEPH                 75 74  300/ 12/ 14   N/A           1/ 3
$$

ILZ025>027-034>036-040-047-049-050-058-095>099-310800-
WEST-CENTRAL ILLINOIS

CITY           SKY/WX    TMP DP  RH WIND       PRES   REMARKS
QUINCY         CLEAR     68  65  90 SW5       30.13S
$$

ILZ028>032-037-038-041>044-048-051>054-059>061-310800-
CENTRAL ILLINOIS

CITY           SKY/WX    TMP DP  RH WIND       PRES   REMARKS
DECATUR        CLEAR     74  64  71 W7        30.10S
PEORIA         CLEAR     72  64  76 W3        30.09S
SPRINGFIELD    CLEAR     68  64  87 W5        30.11S
TAYLORVILLE    NOT AVBL
$$

ILZ033-039-045-046-055>057-062-063-310800-
EAST-CENTRAL ILLINOIS

CITY           SKY/WX    TMP DP  RH WIND       PRES   REMARKS
CHAMPAIGN      CLEAR     66  64  93 W5        30.09S
MATTOON        CLEAR     71  63  75 W5        30.09S
$$

ILZ079-100>102-310800-
SOUTHWEST ILLINOIS

CITY           SKY/WX    TMP DP  RH WIND       PRES   REMARKS
BELLEVILLE     CLEAR     69  68  96 NW5       30.10S
CAHOKIA*       CLEAR     73  65  75 SW3       30.12R
$$

ILZ064>066-069>071-074>076-080>082-084>086-088>090-092>094-310800-
SOUTH-CENTRAL ILLINOIS

CITY           SKY/WX    TMP DP  RH WIND       PRES   REMARKS
CARBONDALE     CLEAR     68  66  93 CALM      30.11S
MT. VERNON     CLEAR     64  61  88 CALM      30.11S
$$

ILZ067-068-072-073-078-083-087-091-310800-
SOUTHEAST ILLINOIS

CITY           SKY/WX    TMP DP  RH WIND       PRES   REMARKS
LAWRENCEVILLE  CLEAR     70  66  87 W3        30.09S
$$

ABBREVIATIONS USED IN REMARKS
   TC - TEMPERATURE IN CELSIUS
  WCI - WIND CHILL INDEX
   HX - HEAT INDEX
  VSB - VISIBILITY
$$




USA.gov is the U.S. government's official web portal to all federal, state and local government web resources and services.